[[{"header":{"parameterUnit":"m.s-1","parameterCategory":1,"la1":30.2991,"la2":30.254,"lo1":-89.0895,"lo2":-89.0444,"dy":0.0017,"dx":0.0017,"nx":28,"ny":28,"refTime":"2026-02-12T03:00:00:Z","depth":0,"parameterNumber":2,"parameterNumberName":"U-component_of_WINDS"},"data":[0,0,0,0,0,0,0,0,0,0,0,0,0,0,0,0,0,0,0,0,0,0,0,0,0,0,0,0,0,0,0,0,0,0,0,0,0,0,0,0,0,0,0,0,0,0,0,0,0,0,0,0,0,0,0,0,0,0,-0.1607,-0.1607,0,-0.1575,-0.1574,-0.1574,-0.1537,-0.1537,-0.1536,-0.1536,-0.1503,-0.1502,-0.1502,0,0,0,0,0,0,0,0,0,0,0,0,0,-0.164,-0.1639,-0.1607,-0.1607,-0.1607,-0.1575,-0.1574,-0.1574,-0.1537,-0.1537,-0.1536,-0.1535,-0.1503,-0.1502,-0.1502,0,0,0,0,0,0,0,0,0,0,0,0,0,-0.1618,-0.1639,-0.1607,-0.1584,-0.1582,-0.1575,-0.1574,-0.1574,-0.1537,-0.1537,-0.1536,-0.1535,-0.1503,-0.1502,-0.1502,-0.1515,0,0,-0.15,-0.15,0,0,0,0,0,0,0,0,-0.162,-0.1617,-0.1588,-0.1586,-0.1583,-0.1559,-0.1574,-0.1554,-0.1538,-0.1554,-0.1535,-0.1535,-0.1522,-0.152,-0.1516,-0.1513,-0.1512,-0.15,-0.15,-0.15,-0.1499,0,0,0,0,0,0,0,-0.1621,-0.1618,-0.1594,-0.1588,-0.1585,-0.1576,-0.1572,-0.157,-0.1543,-0.1553,-0.155,-0.1547,-0.1521,-0.1516,-0.1515,-0.1511,-0.15,-0.15,-0.1499,-0.1499,-0.152,-0.1521,0,0,0,0,0,0,-0.1626,-0.162,-0.1595,-0.1593,-0.16,-0.1576,-0.1572,-0.1568,-0.1543,-0.1539,-0.1547,-0.1545,-0.1518,-0.1515,-0.1513,-0.1528,-0.15,-0.1499,-0.1499,-0.1519,-0.152,-0.1521,0,0,0,0,0,0,-0.1627,-0.1624,-0.1597,-0.1606,-0.1602,-0.1577,-0.1572,-0.1567,-0.1563,-0.1539,-0.1534,-0.1548,-0.1517,-0.1514,-0.1515,-0.1527,-0.1499,-0.1498,-0.1518,-0.152,-0.1521,-0.1558,0,0,0,0,0,0,-0.1628,-0.1625,-0.1629,-0.1606,-0.1601,-0.1599,-0.1573,-0.1567,-0.1562,-0.1559,-0.1538,-0.1534,-0.1516,-0.1516,-0.1515,-0.1525,-0.1498,-0.1517,-0.1519,-0.152,-0.1556,-0.156,-0.1565,0,0,0,0,0,-0.1629,-0.164,-0.1629,-0.1626,-0.1606,-0.1599,-0.1597,-0.1576,-0.1563,-0.1568,-0.1553,-0.1535,-0.1526,-0.1517,-0.1514,-0.1525,-0.1516,-0.1518,-0.152,-0.1554,-0.156,-0.1564,0,0,0,0,0,0,-0.1664,-0.1637,-0.1624,-0.1628,-0.1617,-0.1593,-0.1598,-0.1582,-0.1574,-0.1571,-0.1546,-0.1542,-0.1546,-0.1536,-0.1526,-0.1538,-0.1518,-0.152,-0.1545,-0.155,-0.1554,-0.1557,-0.1497,0,0,0,0,0,-0.1673,-0.1669,-0.1645,-0.1651,-0.1646,-0.1623,-0.162,-0.1605,-0.1591,-0.1586,-0.1571,-0.156,-0.1554,-0.1551,-0.1545,-0.1554,-0.155,-0.156,-0.1565,-0.1569,-0.1571,-0.1577,-0.1582,-0.1528,-0.1528,-0.1528,0,0,-0.169,-0.1674,-0.1673,-0.1658,-0.1647,-0.1645,-0.1619,-0.1618,-0.1616,-0.1586,-0.1587,-0.1575,-0.1561,-0.1566,-0.1568,-0.1558,-0.1585,-0.1571,-0.1574,-0.1574,-0.1579,-0.1584,-0.1589,-0.1529,-0.1529,-0.1529,0,0,-0.172,-0.1707,-0.1712,-0.1702,-0.1686,-0.1671,-0.1672,-0.1651,-0.1643,-0.1643,-0.1621,-0.1619,-0.161,-0.1601,-0.1595,-0.1624,-0.1608,-0.1623,-0.1646,-0.1652,-0.1657,-0.166,-0.1672,-0.1677,-0.1625,-0.1625,-0.1625,0,-0.1743,-0.1739,-0.1716,-0.1716,-0.1711,-0.1684,-0.1689,-0.168,-0.1663,-0.1661,-0.1649,-0.1639,-0.1627,-0.1631,-0.1638,-0.1634,-0.1635,-0.1625,-0.1658,-0.1661,-0.1664,-0.1676,-0.168,-0.1627,-0.1627,-0.1626,-0.1626,0,-0.1769,-0.1767,-0.1772,-0.1757,-0.1752,-0.1755,-0.1733,-0.1731,-0.1717,-0.1703,-0.1705,-0.169,-0.1681,-0.1681,-0.1666,-0.1683,-0.1678,-0.1662,-0.1643,-0.1672,-0.1682,-0.1686,-0.163,-0.1629,-0.1628,-0.1628,0,0,-0.182,-0.1794,-0.1796,-0.179,-0.1771,-0.1769,-0.1771,-0.1762,-0.1762,-0.1751,-0.1754,-0.1747,-0.1734,-0.1727,-0.1712,-0.1717,-0.1743,-0.1701,-0.1701,-0.1711,-0.1763,-0.1776,-0.1781,-0.1732,-0.1733,-0.1733,-0.1765,0,-0.1848,-0.185,-0.1831,-0.1838,-0.1837,-0.1812,-0.1814,-0.1803,-0.1791,-0.1788,-0.1775,-0.1772,-0.1753,-0.1749,-0.1753,-0.1739,-0.1754,-0.1736,-0.1735,-0.1735,-0.1741,-0.1786,-0.1799,-0.183,-0.1769,-0.1769,-0.177,0,-0.1881,-0.1874,-0.1881,-0.1864,-0.1863,-0.1865,-0.1856,-0.1854,-0.1842,-0.1832,-0.1826,-0.1809,-0.1811,-0.1792,-0.1795,-0.1784,-0.1782,-0.1775,-0.1776,-0.1776,-0.1755,-0.1789,-0.1839,-0.1844,-0.1775,-0.1775,-0.1775,0,-0.192,-0.1912,-0.1916,-0.1911,-0.189,-0.1892,-0.1884,-0.1871,-0.1868,-0.186,-0.1858,-0.1851,-0.1848,-0.1843,-0.1825,-0.1812,-0.1831,-0.181,-0.1825,-0.1826,-0.1831,-0.1831,-0.1883,-0.1827,-0.1827,-0.1827,-0.1827,0,-0.1955,-0.1961,-0.1933,-0.1936,-0.1942,-0.192,-0.1927,-0.1917,-0.1906,-0.1906,-0.1884,-0.1885,-0.186,-0.1859,-0.1845,-0.1851,-0.1849,-0.1843,-0.1839,-0.1846,-0.1847,-0.1845,-0.1843,-0.1828,-0.1828,-0.1828,-0.1828,0,-0.1999,-0.1981,-0.1984,-0.1965,-0.196,-0.1966,-0.195,-0.1952,-0.1939,-0.194,-0.1939,-0.1919,-0.1916,-0.1898,-0.1891,-0.1881,-0.1893,-0.1885,-0.1898,-0.1896,-0.1912,-0.1912,-0.1966,-0.1973,-0.1912,-0.1912,-0.1913,0,-0.2023,-0.2028,-0.2009,-0.2008,-0.2001,-0.1999,-0.1996,-0.1975,-0.1972,-0.196,-0.1964,-0.196,-0.1956,-0.1954,-0.1939,-0.1934,-0.1926,-0.1946,-0.1925,-0.1932,-0.1929,-0.1929,-0.193,-0.195,-0.1951,-0.1952,-0.1952,0,-0.2068,-0.2059,-0.2055,-0.2049,-0.2046,-0.204,-0.2032,-0.2033,-0.2009,-0.2008,-0.2006,-0.2003,-0.1997,-0.1994,-0.1987,-0.1979,-0.1962,-0.1959,-0.1962,-0.197,-0.1978,-0.1975,-0.1911,-0.1958,-0.1957,-0.1957,-0.1956,-0.1956,-0.2104,-0.2108,-0.2096,-0.2093,-0.2085,-0.2079,-0.2081,-0.2068,-0.2066,-0.2059,-0.2047,-0.2047,-0.2036,-0.2025,-0.2019,-0.2019,-0.2009,-0.2014,-0.2015,-0.2017,-0.2021,-0.1977,-0.2017,-0.2017,-0.2017,-0.2017,-0.2017,0,-0.2149,-0.2141,-0.2138,-0.2129,-0.2127,-0.2112,-0.2103,-0.2103,-0.2103,-0.2094,-0.2091,-0.209,-0.2087,-0.2072,-0.2068,-0.2071,-0.2064,-0.2071,-0.2071,-0.207,-0.2029,-0.2028,-0.2077,-0.2077,-0.2077,-0.2077,-0.2077,-0.2077,-0.2173,-0.2178,-0.2168,-0.2171,-0.2162,-0.2162,-0.2159,-0.2154,-0.2147,-0.2146,-0.2144,-0.2134,-0.2124,-0.2119,-0.2116,-0.2112,-0.2112,-0.2123,-0.2116,-0.2079,-0.2073,-0.2067,-0.2065,-0.2122,-0.2122,-0.2157,-0.2157,-0.2157]},{"header":{"parameterUnit":"m.s-1","parameterCategory":1,"la1":30.2991,"la2":30.254,"lo1":-89.0895,"lo2":-89.0444,"dy":0.0017,"dx":0.0017,"nx":28,"ny":28,"refTime":"2026-02-12T03:00:00:Z","depth":0,"parameterNumber":3,"parameterNumberName":"V-component_of_WINDS"},"data":[0,0,0,0,0,0,0,0,0,0,0,0,0,0,0,0,0,0,0,0,0,0,0,0,0,0,0,0,0,0,0,0,0,0,0,0,0,0,0,0,0,0,0,0,0,0,0,0,0,0,0,0,0,0,0,0,0,0,1.2422,1.2422,0,1.2411,1.2411,1.2411,1.2395,1.2395,1.2395,1.2394,1.2382,1.2382,1.2382,0,0,0,0,0,0,0,0,0,0,0,0,0,1.243,1.243,1.2422,1.2422,1.2422,1.2411,1.2411,1.2411,1.2395,1.2395,1.2395,1.2394,1.2382,1.2382,1.2382,0,0,0,0,0,0,0,0,0,0,0,0,0,1.2423,1.243,1.2422,1.2413,1.2412,1.2411,1.2411,1.241,1.2395,1.2395,1.2394,1.2394,1.2382,1.2382,1.2382,1.2389,0,0,1.2382,1.2381,0,0,0,0,0,0,0,0,1.2424,1.2423,1.2414,1.2414,1.2413,1.2404,1.2409,1.2403,1.2395,1.2402,1.2394,1.2394,1.239,1.2389,1.2388,1.2388,1.2388,1.2382,1.2381,1.2381,1.2381,0,0,0,0,0,0,0,1.2424,1.2424,1.2418,1.2414,1.2413,1.2409,1.2408,1.2408,1.2398,1.2401,1.24,1.2399,1.2389,1.2388,1.2387,1.2388,1.2382,1.2381,1.2381,1.2381,1.2393,1.2393,0,0,0,0,0,0,1.2426,1.2424,1.2418,1.2417,1.2417,1.2409,1.2408,1.2407,1.2398,1.2396,1.2399,1.2398,1.2388,1.2387,1.2387,1.2394,1.2381,1.2381,1.2381,1.2393,1.2393,1.2394,0,0,0,0,0,0,1.2426,1.2426,1.2418,1.242,1.2419,1.241,1.2409,1.2407,1.2406,1.2396,1.2395,1.24,1.2388,1.2387,1.2388,1.2394,1.2381,1.2381,1.2392,1.2393,1.2393,1.2409,0,0,0,0,0,0,1.2427,1.2426,1.2429,1.2421,1.2419,1.2421,1.2409,1.2407,1.2406,1.2404,1.2396,1.2395,1.2387,1.2389,1.2388,1.2393,1.2381,1.2392,1.2393,1.2393,1.2408,1.241,1.2412,0,0,0,0,0,1.2427,1.2434,1.2429,1.2428,1.2422,1.2421,1.242,1.2412,1.2406,1.2409,1.2403,1.2395,1.2393,1.2389,1.2388,1.2393,1.2391,1.2392,1.2393,1.2407,1.241,1.2412,0,0,0,0,0,0,1.2442,1.2432,1.2427,1.2431,1.2427,1.2418,1.2421,1.2415,1.2412,1.2411,1.24,1.2399,1.2402,1.2397,1.2393,1.2399,1.2391,1.2392,1.2402,1.2404,1.2406,1.2407,1.2381,0,0,0,0,0,1.2446,1.2446,1.2437,1.2442,1.244,1.2431,1.243,1.2424,1.2419,1.2418,1.2412,1.2407,1.2406,1.2405,1.2403,1.2407,1.2406,1.2411,1.2412,1.2414,1.2415,1.2417,1.2419,1.2397,1.2397,1.2397,0,0,1.2454,1.2449,1.2449,1.2445,1.2441,1.2441,1.243,1.243,1.243,1.2418,1.2419,1.2414,1.2409,1.2412,1.2413,1.2409,1.2421,1.2415,1.2417,1.2417,1.2418,1.242,1.2422,1.2397,1.2397,1.2397,0,0,1.2469,1.2465,1.2468,1.2464,1.2459,1.2453,1.2454,1.2446,1.2442,1.2443,1.2434,1.2433,1.2431,1.2427,1.2425,1.2438,1.2431,1.2438,1.2448,1.245,1.2452,1.2453,1.2458,1.246,1.2438,1.2439,1.2439,0,1.248,1.248,1.2471,1.2472,1.247,1.2459,1.2462,1.2458,1.2452,1.2451,1.2446,1.2443,1.2438,1.244,1.2444,1.2442,1.2443,1.2439,1.2452,1.2454,1.2455,1.246,1.2461,1.2439,1.2439,1.2439,1.2439,0,1.2493,1.2493,1.2496,1.2491,1.2489,1.2492,1.2483,1.2482,1.2476,1.2471,1.2472,1.2466,1.2462,1.2462,1.2456,1.2463,1.2461,1.2454,1.2446,1.2458,1.2462,1.2464,1.2441,1.244,1.244,1.244,0,0,1.2517,1.2507,1.2508,1.2506,1.2498,1.2498,1.25,1.2496,1.2496,1.2492,1.2493,1.2491,1.2485,1.2483,1.2476,1.2478,1.2489,1.2471,1.2471,1.2475,1.2496,1.2502,1.2504,1.2484,1.2484,1.2484,1.2497,0,1.2531,1.2533,1.2525,1.2529,1.2529,1.2518,1.2519,1.2515,1.251,1.2509,1.2503,1.2502,1.2493,1.2492,1.2493,1.2487,1.2493,1.2486,1.2484,1.2484,1.2487,1.2506,1.2511,1.2523,1.2498,1.2499,1.2499,0,1.2547,1.2544,1.2549,1.2541,1.2541,1.2542,1.2538,1.2537,1.2532,1.2528,1.2525,1.2518,1.2518,1.251,1.2511,1.2506,1.2505,1.2502,1.2502,1.2502,1.2493,1.2506,1.2527,1.2529,1.2501,1.2501,1.2501,0,1.2565,1.2562,1.2564,1.2562,1.2553,1.2554,1.2551,1.2545,1.2544,1.254,1.2539,1.2536,1.2534,1.2532,1.2523,1.2518,1.2525,1.2516,1.2521,1.2522,1.2524,1.2524,1.2545,1.2522,1.2522,1.2522,1.2522,0,1.2581,1.2584,1.2572,1.2573,1.2576,1.2567,1.257,1.2565,1.256,1.256,1.255,1.2551,1.2539,1.2538,1.2532,1.2533,1.2532,1.2529,1.2527,1.253,1.253,1.2529,1.2528,1.2523,1.2523,1.2523,1.2523,0,1.2601,1.2593,1.2595,1.2586,1.2584,1.2587,1.258,1.258,1.2574,1.2575,1.2574,1.2565,1.2563,1.2554,1.255,1.2546,1.2549,1.2546,1.2551,1.255,1.2557,1.2556,1.2578,1.258,1.2556,1.2557,1.2557,0,1.2612,1.2614,1.2606,1.2605,1.2602,1.2602,1.26,1.259,1.2589,1.2583,1.2585,1.2582,1.2579,1.2577,1.257,1.2566,1.2563,1.2571,1.2562,1.2565,1.2563,1.2563,1.2563,1.2572,1.2573,1.2573,1.2573,0,1.2632,1.2628,1.2627,1.2624,1.2622,1.2619,1.2615,1.2616,1.2605,1.2604,1.2602,1.26,1.2596,1.2593,1.2589,1.2585,1.2577,1.2576,1.2577,1.258,1.2583,1.2582,1.2557,1.2575,1.2575,1.2575,1.2575,1.2575,1.2649,1.265,1.2644,1.2643,1.2639,1.2636,1.2636,1.263,1.2629,1.2625,1.2619,1.2618,1.2612,1.2605,1.2602,1.2601,1.2596,1.2598,1.2598,1.2599,1.26,1.2583,1.26,1.26,1.2599,1.2599,1.2599,0,1.2668,1.2664,1.2663,1.2658,1.2657,1.265,1.2645,1.2645,1.2644,1.2639,1.2637,1.2635,1.2632,1.2624,1.2621,1.2621,1.2618,1.2621,1.2621,1.262,1.2604,1.2604,1.2624,1.2624,1.2624,1.2624,1.2624,1.2624,1.2679,1.2681,1.2676,1.2676,1.2672,1.2671,1.2669,1.2666,1.2662,1.266,1.2658,1.2653,1.2647,1.2643,1.264,1.2638,1.2637,1.2641,1.2638,1.2623,1.2621,1.2619,1.2618,1.2641,1.2641,1.2653,1.2654,1.2654]}]]